Dewpoint
59 59 58 57 56 55 55 55 54 53 51 48 47 46 46 46 46 46 46 46 46 46 46 47 48 48 40 19 14 26 44 42 34 33 29 25 21 28 32 22 27 24 18 17 16 14 15
59 59 58 57 56 56 55 55 54 52 50 48 47 47 46 45 45 45 46 46 46 46 47 47 48 47 36 10 24 32 37 36 33 32 29 25 21 19 16 12 15 18 14 13 12 12 12
60 59 58 57 56 55 55 54 54 52 49 48 47 46 45 45 44 45 46 46 46 47 48 48 47 44 38 19 34 38 38 35 34 31 28 27 24 19 18 16 18 15 13 12 10 11 12
59 59 58 57 56 55 55 54 53 51 49 48 47 45 44 44 45 45 46 46 47 48 49 48 48 42 28 38 39 41 38 28 35 33 30 27 25 21 19 19 15 12 12 8 9 10 10
57 59 58 57 56 55 55 54 52 51 48 48 47 45 43 44 45 45 46 47 48 49 49 49 43 39 27 40 35 30 30 24 22 22 24 21 23 20 18 14 14 13 9 8 8 10 9
55 56 58 57 56 55 55 54 52 50 50 48 46 44 43 44 44 47 48 47 46 48 46 44 43 30 27 21 24 25 25 26 22 22 19 17 18 18 16 15 15 15 11 13 12 15 18
54 55 57 58 57 55 55 54 52 50 49 47 45 43 43 43 45 46 45 25 17 19 28 14 21 29 21 22 25 22 24 24 23 19 17 17 15 12 12 14 14 15 15 15 15 18 19
53 54 55 58 57 56 55 53 51 50 48 46 44 43 42 43 45 46 36 26 23 23 15 24 26 25 26 25 22 21 23 19 26 18 25 25 18 18 19 17 14 13 12 12 13 17 17
52 53 54 57 57 56 54 53 51 49 48 45 44 43 43 44 46 36 33 32 34 29 19 23 26 25 23 25 20 15 21 27 26 23 27 21 18 24 23 23 20 19 17 15 11 11 13
52 52 53 56 56 55 53 52 50 48 46 46 44 44 45 45 37 35 34 37 34 32 13 11 20 22 20 21 20 19 23 25 28 26 23 24 26 25 27 27 25 21 20 19 17 16 18
54 52 52 56 55 53 52 50 49 47 46 44 45 45 45 44 34 31 35 39 37 30 -10 13 14 18 21 20 22 21 27 29 25 23 25 23 24 25 23 21 26 22 25 23 22 20 21
55 53 53 55 53 52 50 49 48 46 44 44 45 46 45 41 37 35 38 39 34 12 -2 12 15 17 22 23 23 25 28 29 28 25 25 24 25 25 24 24 25 26 25 24 24 24 19
54 53 55 53 52 50 49 48 46 45 45 45 45 46 44 40 34 39 39 34 10 7 13 11 16 22 22 22 25 28 28 28 26 25 23 25 25 27 27 26 27 25 23 16 14 14 16
54 55 53 52 50 49 48 47 46 46 45 45 46 46 44 41 39 40 35 21 6 11 12 15 23 24 22 25 25 27 27 26 31 28 27 22 20 21 25 26 23 22 22 17 12 14 21
55 53 51 50 49 48 47 47 46 45 45 45 45 40 37 38 40 38 25 15 8 12 16 23 24 23 23 24 27 27 26 26 32 35 28 27 24 25 28 28 25 20 21 20 20 22 20
50 50 49 48 48 47 46 45 44 44 45 45 37 38 37 41 41 34 26 16 15 21 26 25 23 26 21 23 21 24 25 29 31 36 36 33 26 29 30 31 30 25 30 25 24 18 16
44 44 45 45 45 45 44 44 43 44 45 42 37 34 38 40 38 28 22 18 22 26 27 27 25 25 25 23 24 24 26 29 32 33 34 36 34 27 30 29 25 30 28 30 29 26 22
46 45 45 44 44 44 44 43 44 44 45 39 37 30 37 40 31 28 24 22 28 26 27 28 28 27 24 25 24 21 26 31 31 32 31 33 34 28 27 31 34 36 29 28 22 19 27
44 44 44 44 44 44 43 44 44 45 42 38 32 32 36 36 27 25 25 25 25 24 25 25 25 28 27 22 16 18 26 30 32 30 34 36 33 26 23 31 34 32 33 34 31 30 27
45 44 44 44 43 43 44 43 44 44 43 38 34 26 30 33 30 25 24 23 22 24 23 25 25 27 24 16 23 17 26 29 32 30 35 39 34 27 21 26 33 30 32 33 30 24 23
44 43 42 42 43 43 42 43 44 44 43 36 31 28 30 27 27 25 25 24 19 18 21 24 24 24 22 14 19 23 26 27 29 32 32 36 30 32 30 30 30 29 31 31 29 29 23
44 43 43 43 43 43 43 44 44 44 42 34 31 28 27 27 26 25 27 22 18 18 20 20 20 23 24 21 19 20 24 26 27 31 30 34 30 32 27 33 28 25 27 29 29 28 26
43 43 43 42 43 42 42 43 43 43 40 36 36 33 29 26 22 23 26 25 19 22 26 24 24 24 23 24 25 25 27 27 28 28 29 31 31 29 23 28 23 19 26 26 27 27 27
44 42 42 41 41 42 42 42 43 42 42 38 37 32 27 25 21 20 26 21 20 24 23 25 25 24 25 29 31 31 31 30 30 30 31 30 32 29 27 28 15 26 32 31 26 28 27
43 42 41 40 41 40 41 42 42 43 43 39 37 33 29 27 26 25 25 24 24 25 24 26 26 26 30 30 28 24 24 25 28 30 29 32 32 30 23 21 25 26 26 27 27 25 28
43 43 41 41 41 40 41 42 43 43 43 39 38 37 32 27 26 29 25 25 23 24 23 26 29 31 29 27 25 23 22 26 25 26 29 29 32 32 26 20 17 23 25 28 31 21 28
42 43 43 42 41 41 41 42 43 43 42 39 38 37 34 30 31 29 25 24 27 26 24 25 27 29 28 22 23 23 23 28 23 23 25 25 26 24 24 21 22 25 30 32 22 21 28
42 42 43 42 41 41 41 42 44 44 42 40 38 39 34 30 29 34 33 28 29 27 21 23 22 25 25 21 23 23 24 27 26 28 27 23 23 22 25 18 17 29 28 24 28 31 29
42 41 43 42 42 41 41 43 44 45 43 41 37 39 36 32 29 35 35 33 33 30 29 29 27 29 28 22 23 25 24 25 26 19 28 23 24 22 23 21 28 28 29 28 26 25 27
Lifted_Index
2 2 2 2 2 2 3 5 7 10 13 14 15 15 15 15 15 15 15 15 15 15 15 14 14 13 12 11 12 13 14 14 14 14 13 13 12 11 10 9 9 9 9 10 12 12 12
2 2 2 2 2 2 3 4 7 10 13 14 15 15 15 15 15 15 15 15 15 15 15 14 14 13 12 11 12 13 13 13 13 13 13 13 13 12 11 10 10 10 9 10 11 11 12
3 3 3 3 3 2 3 3 6 9 12 14 15 15 15 16 16 16 15 15 15 15 15 14 14 13 12 11 12 13 13 13 13 13 13 13 13 13 12 11 11 11 9 8 9 11 11
4 4 4 4 4 3 3 3 4 8 12 14 15 15 16 16 16 16 15 15 15 14 14 14 14 13 12 12 13 13 14 14 14 13 13 13 12 12 12 12 11 10 8 7 9 11 13
5 5 5 5 4 4 4 3 4 7 12 14 15 16 16 16 16 15 15 15 14 13 13 14 14 13 12 13 13 14 14 14 14 13 13 13 12 12 12 11 9 8 8 7 9 12 14
6 5 4 4 4 4 4 4 5 8 11 14 15 16 16 16 16 15 15 14 13 13 13 13 13 13 13 13 13 14 14 14 13 12 12 13 12 12 12 11 9 8 9 9 10 13 15
7 6 4 3 4 4 4 4 5 8 11 14 15 16 16 16 15 15 15 14 13 12 12 12 12 13 13 13 13 13 13 13 12 11 11 12 11 11 12 12 11 11 11 10 11 12 12
6 6 4 3 3 3 3 4 5 8 11 13 15 15 15 15 15 15 15 14 13 12 11 11 12 13 13 12 12 12 12 12 11 10 11 11 11 11 12 12 11 10 9 8 7 8 8
5 5 4 2 2 2 3 3 5 8 11 13 14 14 14 14 14 15 14 14 13 12 10 11 12 13 12 12 11 11 11 11 10 10 10 10 10 10 10 9 7 6 5 4 4 4 5
3 3 2 1 1 1 2 3 5 8 11 13 14 14 14 14 14 14 14 14 13 11 9 9 11 12 12 11 10 11 11 11 10 10 10 9 8 8 7 5 4 3 3 3 3 3 3
1 2 1 0 -0 0 1 3 5 8 11 13 13 13 13 13 13 13 13 13 12 9 7 8 10 11 11 11 10 10 10 10 9 9 8 7 6 6 5 4 3 3 2 2 2 2 2
1 1 1 -0 -1 0 1 3 5 8 11 13 13 13 13 13 13 13 13 12 10 7 6 7 9 10 10 10 10 10 9 9 8 7 5 5 5 5 5 4 4 3 2 2 1 1 1
1 1 0 -0 -0 1 2 3 5 8 11 12 12 12 13 13 13 12 12 10 8 6 6 7 8 9 9 9 9 9 9 7 6 5 4 4 4 4 4 4 4 3 2 1 1 0 1
0 0 0 0 1 3 4 5 7 9 11 11 12 12 12 13 12 12 11 9 7 6 6 7 8 8 8 8 9 8 7 5 4 4 3 3 3 3 3 3 3 3 2 1 0 0 0
2 2 2 3 4 5 6 7 9 10 11 11 12 12 12 12 12 11 10 8 7 7 7 7 7 7 7 8 8 7 6 4 3 3 3 2 2 2 2 2 2 2 1 1 1 0 0
6 6 6 7 8 9 9 10 10 11 11 12 12 12 12 12 11 11 9 8 7 7 8 8 7 7 7 8 8 6 4 3 3 3 3 3 2 2 2 2 2 2 1 1 1 0 0
10 10 10 10 11 11 11 11 11 11 12 12 11 11 11 11 11 10 9 8 7 8 8 8 7 7 7 7 7 5 4 3 3 3 3 3 2 2 2 2 2 1 1 1 0 0 0
10 10 10 11 11 11 12 12 12 12 12 11 11 11 11 10 9 9 8 7 7 8 8 8 8 8 7 7 6 4 3 3 4 4 3 3 3 2 2 2 1 1 0 0 0 0 0
9 9 10 10 11 11 11 12 12 12 11 11 10 10 10 9 8 8 7 7 7 8 8 9 8 8 7 6 5 4 3 4 4 3 3 3 3 2 2 2 1 1 1 0 1 1 1
9 9 10 10 10 11 11 11 12 11 10 10 10 9 9 8 7 7 6 7 7 8 9 9 8 7 6 5 4 4 4 3 3 3 3 3 2 2 2 2 2 2 1 1 1 1 1
9 9 10 10 10 11 11 11 11 11 10 9 9 9 8 7 7 6 6 7 7 8 9 9 8 8 6 5 4 4 3 3 3 3 2 2 2 2 3 3 3 2 1 1 1 1 1
9 9 10 10 10 10 10 10 10 10 9 8 8 8 7 6 6 6 6 7 8 8 8 8 8 8 7 5 5 4 3 3 3 3 2 2 1 2 2 3 3 2 1 1 2 2 2
9 9 10 10 10 10 10 10 10 9 8 7 7 7 7 6 5 6 6 7 8 8 8 8 8 8 7 6 5 4 3 3 3 2 2 2 1 1 1 2 2 2 3 3 2 3 3
8 9 10 10 10 10 10 9 9 8 7 7 7 6 6 5 5 6 7 7 8 8 8 8 8 7 7 6 5 3 3 2 2 2 2 2 1 1 1 1 2 3 4 3 3 4 4
8 8 9 9 9 9 9 8 8 7 7 6 6 6 6 5 5 6 7 8 8 8 8 8 7 7 7 6 4 3 2 2 2 2 3 2 1 1 1 1 2 3 4 4 4 4 5
7 8 8 8 8 8 8 7 7 6 6 6 6 5 5 5 6 6 7 8 8 8 8 8 8 7 7 5 4 3 2 2 2 2 3 2 1 1 1 1 2 3 4 5 4 4 5
7 7 7 7 7 7 7 7 6 6 6 6 5 5 5 5 6 6 7 8 8 8 8 8 8 7 7 5 4 3 2 2 2 2 2 2 1 1 1 1 2 3 4 5 4 5 5
7 7 6 6 6 6 7 6 6 6 6 6 6 5 5 5 6 6 7 8 8 8 8 8 7 7 6 5 4 3 2 2 1 2 2 2 2 2 1 1 3 4 4 4 5 6 6
6 6 6 5 6 6 6 6 6 6 6 6 6 6 5 5 6 7 7 8 8 8 8 8 7 7 6 6 4 3 2 2 1 2 2 2 2 2 2 2 3 4 4 5 6 6 6